Theta_e
310 311 311 307 303 309 302 304 301 305 308 313 317 319 321 322 324 327 336 340 343 345 347 350 352 356 358 362 364 363 361 367
309 311 311 309 311 301 303 296 295 301 304 306 312 315 319 320 323 326 332 338 341 344 346 349 352 355 358 362 363 364 363 363
309 305 305 306 305 306 306 304 298 298 302 314 314 317 318 321 324 327 331 335 339 341 345 347 350 353 354 357 361 362 363 365
305 310 311 310 307 307 301 301 303 303 305 313 315 317 320 321 324 327 330 333 336 339 342 345 347 349 350 353 355 357 362 366
303 307 309 306 308 309 308 308 304 300 304 315 316 316 319 320 323 326 328 331 334 336 337 341 345 349 349 350 352 354 360 358
301 304 307 304 306 308 307 303 304 305 307 311 312 315 316 318 320 322 327 329 331 334 336 338 344 350 354 349 351 353 354 356
306 303 303 306 305 307 306 307 304 307 308 312 314 316 318 319 320 321 323 326 329 334 338 343 345 350 354 351 353 353 358 355
299 302 301 300 304 305 307 308 308 308 309 316 317 318 318 319 320 321 322 323 325 330 339 343 346 348 349 354 353 355 359 359
297 302 300 297 302 304 306 308 308 305 311 315 315 316 317 319 320 321 323 325 327 329 334 339 343 348 348 354 354 357 359 362
295 299 290 304 310 309 306 308 310 310 312 314 316 318 319 321 321 321 322 324 327 328 330 335 338 337 344 349 358 359 360 361
292 293 299 301 303 304 304 306 311 311 313 314 316 316 317 320 322 324 325 327 328 329 330 336 336 338 340 345 351 354 359 360
294 290 290 301 307 309 309 302 314 316 316 319 321 310 314 321 323 325 326 328 328 329 330 332 337 339 342 343 348 354 358 359
290 290 296 304 309 314 300 309 319 320 321 322 321 325 330 333 332 333 332 330 332 334 333 336 340 342 343 345 347 353 355 356
291 289 287 304 303 300 309 313 318 319 319 320 323 325 328 331 334 336 335 330 334 337 335 340 348 348 348 355 355 357 359 357
293 293 303 306 305 310 310 310 312 317 318 322 323 325 328 330 336 338 335 336 342 338 341 345 352 351 351 359 359 359 359 361
295 298 300 303 306 308 309 309 314 316 317 319 321 324 327 334 339 337 342 347 348 349 346 350 354 355 356 359 359 358 358 360
297 300 302 303 305 307 308 309 310 312 317 318 320 324 329 337 341 343 349 351 352 351 349 350 354 356 358 358 358 357 358 358
293 301 301 303 306 308 306 306 313 315 319 321 322 327 333 338 343 346 345 344 343 343 343 342 343 345 348 354 359 356 353 352
299 303 304 306 307 309 309 312 314 316 322 323 328 330 335 336 340 336 345 345 341 340 343 347 345 346 347 350 350 349 348 352
Wind_Speed
21 22 25 24 28 25 11 5 10 15 20 16 10 18 22 23 17 18 21 22 25 26 26 25 24 25 25 22 22 22 24 19
24 26 25 20 24 23 16 17 17 14 19 13 22 21 19 21 21 18 21 22 21 22 25 25 26 26 26 25 25 25 23 21
24 28 26 23 18 24 18 17 14 12 13 16 18 17 21 20 20 19 19 20 20 21 22 23 22 23 25 25 24 23 22 21
25 23 25 28 23 28 14 23 19 14 7 5 8 16 18 18 19 18 17 16 16 17 18 20 22 23 24 25 25 24 22 21
15 21 22 30 29 24 25 16 21 18 5 10 9 3 3 7 7 7 9 7 10 12 15 18 20 22 23 24 26 25 22 23
19 16 18 26 29 27 27 21 17 18 15 12 4 11 5 5 4 4 8 9 10 12 15 16 17 17 20 22 23 23 23 24
16 4 7 14 27 29 30 26 25 18 21 17 7 8 7 7 10 10 6 5 7 11 12 12 14 15 17 20 20 21 20 23
14 10 8 11 13 15 22 30 27 26 23 10 6 7 15 14 13 14 16 17 13 10 12 12 14 16 17 19 20 20 18 22
15 11 10 16 21 21 19 19 17 23 15 16 18 13 15 14 14 14 14 16 14 11 12 11 13 14 16 18 17 19 20 18
7 7 17 11 7 22 23 20 20 18 15 14 13 15 16 17 17 19 20 19 15 14 15 11 13 14 15 15 16 18 18 19
11 13 10 5 4 8 11 17 17 18 12 15 17 19 20 19 18 19 19 19 18 17 15 12 13 14 13 15 17 18 19 20
8 16 18 3 20 2 2 10 9 4 7 4 7 14 12 15 17 16 16 14 15 17 16 15 13 12 12 15 17 19 20 19
14 14 9 10 10 2 12 7 7 0 4 5 7 9 17 22 22 18 16 17 16 15 14 14 11 12 13 14 19 16 16 16
16 19 24 10 11 14 9 11 9 11 12 12 14 14 15 17 22 20 20 20 17 12 12 11 10 12 13 14 12 13 14 15
12 11 9 9 10 13 15 16 17 19 17 16 19 20 18 18 20 19 18 14 10 11 9 8 9 11 12 10 11 12 13 13
18 19 24 22 19 21 18 20 20 21 22 20 21 21 23 19 17 15 11 8 9 6 7 6 5 7 9 10 11 12 12 12
21 22 23 23 20 21 24 22 25 24 24 21 21 24 23 19 14 12 7 8 4 5 5 6 6 6 6 7 8 10 10 10
19 20 19 18 17 20 24 25 21 20 22 23 20 19 18 17 10 5 7 6 6 6 6 6 7 7 7 6 4 6 6 7
22 25 26 24 21 20 19 20 24 22 21 21 18 11 6 2 4 6 9 7 6 6 5 7 7 7 6 6 6 6 4 3
Wind_Direction
200 199 202 190 215 218 254 214 267 218 214 247 248 225 219 228 225 209 192 200 204 203 202 200 201 200 200 198 200 202 205 203
194 198 213 207 201 214 228 238 231 224 232 223 209 212 220 214 215 204 196 199 202 203 205 204 203 203 200 200 198 199 201 204
184 202 194 199 201 214 223 232 216 233 231 209 228 209 212 207 211 207 202 201 199 203 206 207 209 204 206 206 205 201 202 202
204 198 214 202 204 202 217 212 241 282 248 115 211 215 215 217 210 217 208 212 209 206 204 204 205 207 208 208 207 207 204 203
199 202 203 217 204 211 217 236 210 220 190 128 101 218 150 218 237 253 261 249 239 220 208 207 206 207 209 208 211 207 203 203
220 211 196 215 207 214 211 223 227 207 235 163 201 160 146 143 158 183 196 222 227 225 218 214 210 205 208 210 211 210 204 208
252 315 290 236 214 210 216 224 228 227 212 239 213 236 240 280 301 294 264 223 234 227 221 218 214 213 205 212 208 210 206 208
244 222 235 238 238 244 234 228 233 242 248 241 199 297 272 280 281 281 286 281 277 255 225 214 216 212 210 210 212 205 207 210
227 204 254 242 225 221 225 234 238 237 244 252 260 254 253 264 275 275 272 274 272 255 228 231 216 214 215 210 204 204 211 205
262 167 235 248 212 216 225 231 226 246 257 260 251 250 255 260 264 269 267 268 263 251 241 225 239 235 220 213 206 204 204 207
239 226 280 181 168 217 219 229 230 242 253 255 244 245 250 256 258 259 260 264 270 270 271 270 256 245 244 210 203 205 206 205
223 240 233 280 212 188 258 247 245 205 238 294 300 246 247 246 249 281 264 270 274 274 270 260 243 230 208 212 208 208 208 204
228 249 247 270 88 42 200 69 62 313 349 331 299 318 317 310 305 298 297 296 288 277 259 250 241 224 217 211 214 212 208 206
233 242 238 258 289 237 350 322 312 323 318 310 306 303 299 301 296 290 282 277 274 266 247 234 230 220 206 208 206 198 201 204
227 237 272 299 284 314 317 306 301 306 305 312 304 306 308 303 292 283 275 267 261 246 232 221 216 211 197 198 191 189 196 195
269 258 268 276 287 283 290 295 304 302 296 301 302 306 308 305 291 268 260 260 244 227 219 191 185 186 179 167 179 186 191 196
264 255 261 262 263 281 275 275 283 288 290 290 298 301 302 294 280 258 223 226 212 182 154 120 110 116 132 155 172 183 188 193
256 261 267 266 266 263 264 269 283 278 287 282 286 290 283 276 266 215 184 169 156 138 123 108 104 92 77 62 109 150 172 185
265 263 266 265 266 270 274 278 274 274 280 280 281 289 239 65 180 171 154 119 93 97 91 65 48 63 68 63 79 82 78 63